User: anonymous   Login
Location: Chuathbaluk
(61.5726°N, 159.2454°W)
Time: 02:36:31
(UTC+00:00)
Language:

Vanguard 3 - Orbit

View from above orbital plane
View from above orbital plane
View from above satellite
View from above satellite

Ground track
Ground track

The orbit data is extracted from the following two-line orbital elements,

1 00020U 59007A   21337.56348448  .00000773  00000-0  30235-3 0  9994
2 00020  33.3518  79.0316 1664982 220.4496 125.9839 11.55922866292416
Epoch (UTC): 03 December 2021 13:31:25
Eccentricity: 0.1664982
inclination: 33.3518°
perigee height: 509 km
apogee height: 3260 km
right ascension of ascending node: 79.0316°
argument of perigee: 220.4496°
revolutions per day: 11.55922866
mean anomaly at epoch: 125.9839°
orbit number at epoch: 29241

The dashed part of the orbit path shows where the satellite is in the earth's shadow,  

DLR